Location: Asheville, NC
(35.6000°N, 82.5500°W)
Time: 21:04:34
(UTC-05:00)

Vanguard 1 - Pass Details

Date: 07 December 2017
Orbit: 649 x 3834 km, 34.2° (Epoch: 21 January)

Event Time Altitude Azimuth Distance (km) Brightness Sun altitude
Rises 08:08:56 0° 204° (SSW) 7,961 14.8 6.5°
Reaches altitude 10° 08:15:52 10° 195° (SSW) 6,875 14.7 7.7°
Maximum altitude 08:32:50 29° 145° (SE) 4,703 15.0 10.5°
Drops below altitude 10° 08:45:06 10° 93° (E) 5,011 14.7 12.4°
Sets 08:49:01 0° 83° (E) 5,588 14.6 13.0°
